owner,sensor,date,latitude,longitude,vertical_datum,sea_water_practical_salinity,qcFlag 
SCCF RECON,ioos:station:SCCF:56:1,2017-06-01T00:00:00Z,26.4645,-82.1044,1.73,35.92,1111122 
SCCF RECON,ioos:station:SCCF:56:1,2017-06-01T01:00:00Z,26.4645,-82.1044,1.66,36.05,1111122 
SCCF RECON,ioos:station:SCCF:56:1,2017-06-01T02:00:00Z,26.4645,-82.1044,1.6,36.12,1111122 
SCCF RECON,ioos:station:SCCF:56:1,2017-06-01T03:00:00Z,26.4645,-82.1044,1.49,36.26,1111122 
SCCF RECON,ioos:station:SCCF:56:1,2017-06-01T04:00:00Z,26.4645,-82.1044,1.38,36.36,1111122 
SCCF RECON,ioos:station:SCCF:56:1,2017-06-01T05:00:00Z,26.4645,-82.1044,1.28,36.47,1111122 
SCCF RECON,ioos:station:SCCF:56:1,2017-06-01T06:00:00Z,26.4645,-82.1044,1.2,36.65,1111122 
SCCF RECON,ioos:station:SCCF:56:1,2017-06-01T07:00:00Z,26.4645,-82.1044,1.22,36.76,1111122 
SCCF RECON,ioos:station:SCCF:56:1,2017-06-01T08:00:00Z,26.4645,-82.1044,1.35,36.07,1111122 
SCCF RECON,ioos:station:SCCF:56:1,2017-06-01T09:00:00Z,26.4645,-82.1044,1.499,36.03,1111122 
SCCF RECON,ioos:station:SCCF:56:1,2017-06-01T10:00:00Z,26.4645,-82.1044,1.619,35.82,1111122 
SCCF RECON,ioos:station:SCCF:56:1,2017-06-01T11:00:00Z,26.4645,-82.1044,1.7,35.82,1111122 
SCCF RECON,ioos:station:SCCF:56:1,2017-06-01T12:00:00Z,26.4645,-82.1044,1.73,35.79,1111122 
SCCF RECON,ioos:station:SCCF:56:1,2017-06-01T13:00:00Z,26.4645,-82.1044,1.74,36.02,1111122 
SCCF RECON,ioos:station:SCCF:56:1,2017-06-01T14:00:00Z,26.4645,-82.1044,1.68,35.92,1111122 
SCCF RECON,ioos:station:SCCF:56:1,2017-06-01T15:00:00Z,26.4645,-82.1044,1.618,35.93,1111122 
SCCF RECON,ioos:station:SCCF:56:1,2017-06-01T16:00:00Z,26.4645,-82.1044,1.58,35.95,1111122 
SCCF RECON,ioos:station:SCCF:56:1,2017-06-01T17:00:00Z,26.4645,-82.1044,1.529,36.03,1111122 
SCCF RECON,ioos:station:SCCF:56:1,2017-06-01T18:00:00Z,26.4645,-82.1044,1.47,36.05,1111122 
SCCF RECON,ioos:station:SCCF:56:1,2017-06-01T19:00:00Z,26.4645,-82.1044,1.45,36.23,1111122 
SCCF RECON,ioos:station:SCCF:56:1,2017-06-01T20:00:00Z,26.4645,-82.1044,1.5,36.21,1111122 
SCCF RECON,ioos:station:SCCF:56:1,2017-06-01T21:00:00Z,26.4645,-82.1044,1.586,35.96,1111122 
SCCF RECON,ioos:station:SCCF:56:1,2017-06-01T22:00:00Z,26.4645,-82.1044,1.64,35.99,1111122 
SCCF RECON,ioos:station:SCCF:56:1,2017-06-01T23:00:00Z,26.4645,-82.1044,1.68,35.92,1111122 
SCCF RECON,ioos:station:SCCF:56:1,2017-06-02T00:00:00Z,26.4645,-82.1044,1.72,35.89,1111122 
SCCF RECON,ioos:station:SCCF:56:1,2017-06-02T01:00:00Z,26.4645,-82.1044,1.72,35.95,1111122 
SCCF RECON,ioos:station:SCCF:56:1,2017-06-02T02:00:00Z,26.4645,-82.1044,1.68,35.96,1111122 
SCCF RECON,ioos:station:SCCF:56:1,2017-06-02T03:00:00Z,26.4645,-82.1044,1.611,35.99,1111122 
SCCF RECON,ioos:station:SCCF:56:1,2017-06-02T04:00:00Z,26.4645,-82.1044,1.51,36.14,1111122 
SCCF RECON,ioos:station:SCCF:56:1,2017-06-02T05:00:00Z,26.4645,-82.1044,1.4,36.3,1111122 
SCCF RECON,ioos:station:SCCF:56:1,2017-06-02T06:00:00Z,26.4645,-82.1044,1.31,36.48,1111122 
SCCF RECON,ioos:station:SCCF:56:1,2017-06-02T07:00:00Z,26.4645,-82.1044,1.26,36.66,1111122 
SCCF RECON,ioos:station:SCCF:56:1,2017-06-02T08:00:00Z,26.4645,-82.1044,1.31,36.62,1111122 
SCCF RECON,ioos:station:SCCF:56:1,2017-06-02T09:00:00Z,26.4645,-82.1044,1.44,36.32,1111122 
SCCF RECON,ioos:station:SCCF:56:1,2017-06-02T10:00:00Z,26.4645,-82.1044,1.56,36.01,1111122 
SCCF RECON,ioos:station:SCCF:56:1,2017-06-02T11:00:00Z,26.4645,-82.1044,1.65,35.86,1111122 
SCCF RECON,ioos:station:SCCF:56:1,2017-06-02T12:00:00Z,26.4645,-82.1044,1.72,35.82,1111122 
SCCF RECON,ioos:station:SCCF:56:1,2017-06-02T13:00:00Z,26.4645,-82.1044,1.8,35.92,1111122 
SCCF RECON,ioos:station:SCCF:56:1,2017-06-02T14:00:00Z,26.4645,-82.1044,1.799,36.0,1111122 
SCCF RECON,ioos:station:SCCF:56:1,2017-06-02T15:00:00Z,26.4645,-82.1044,1.77,36.06,1111122 
SCCF RECON,ioos:station:SCCF:56:1,2017-06-02T16:00:00Z,26.4645,-82.1044,1.68,35.99,1111122 
SCCF RECON,ioos:station:SCCF:56:1,2017-06-02T17:00:00Z,26.4645,-82.1044,1.57,36.09,1111122 
SCCF RECON,ioos:station:SCCF:56:1,2017-06-02T18:00:00Z,26.4645,-82.1044,1.508,36.2,1111122 
SCCF RECON,ioos:station:SCCF:56:1,2017-06-02T19:00:00Z,26.4645,-82.1044,1.41,36.3,1111122 
SCCF RECON,ioos:station:SCCF:56:1,2017-06-02T20:00:00Z,26.4645,-82.1044,1.43,36.41,1111122 
SCCF RECON,ioos:station:SCCF:56:1,2017-06-02T21:00:00Z,26.4645,-82.1044,1.47,36.36,1111122 
SCCF RECON,ioos:station:SCCF:56:1,2017-06-02T22:00:00Z,26.4645,-82.1044,1.54,36.11,1111122 
SCCF RECON,ioos:station:SCCF:56:1,2017-06-02T23:00:00Z,26.4645,-82.1044,1.61,36.02,1111122 
SCCF RECON,ioos:station:SCCF:56:1,2017-06-03T00:00:00Z,26.4645,-82.1044,1.66,35.97,1111122 
SCCF RECON,ioos:station:SCCF:56:1,2017-06-03T01:00:00Z,26.4645,-82.1044,1.69,35.94,1111122 
SCCF RECON,ioos:station:SCCF:56:1,2017-06-03T02:00:00Z,26.4645,-82.1044,1.685,36.03,1111122 
SCCF RECON,ioos:station:SCCF:56:1,2017-06-03T03:00:00Z,26.4645,-82.1044,1.64,35.97,1111122 
SCCF RECON,ioos:station:SCCF:56:1,2017-06-03T04:00:00Z,26.4645,-82.1044,1.56,36.05,1111122 
SCCF RECON,ioos:station:SCCF:56:1,2017-06-03T05:00:00Z,26.4645,-82.1044,1.486,36.25,1111122 
SCCF RECON,ioos:station:SCCF:56:1,2017-06-03T06:00:00Z,26.4645,-82.1044,1.408,36.4,1111122 
SCCF RECON,ioos:station:SCCF:56:1,2017-06-03T07:00:00Z,26.4645,-82.1044,1.33,36.55,1111122 
SCCF RECON,ioos:station:SCCF:56:1,2017-06-03T08:00:00Z,26.4645,-82.1044,1.309,36.64,1111122 
SCCF RECON,ioos:station:SCCF:56:1,2017-06-03T09:00:00Z,26.4645,-82.1044,1.381,36.55,1111122 
SCCF RECON,ioos:station:SCCF:56:1,2017-06-03T10:00:00Z,26.4645,-82.1044,1.523,36.23,1111122 
SCCF RECON,ioos:station:SCCF:56:1,2017-06-03T11:00:00Z,26.4645,-82.1044,1.64,36.19,1111122 
SCCF RECON,ioos:station:SCCF:56:1,2017-06-03T12:00:00Z,26.4645,-82.1044,1.73,36.01,1111122 
SCCF RECON,ioos:station:SCCF:56:1,2017-06-03T13:00:00Z,26.4645,-82.1044,1.792,35.99,1111122 
SCCF RECON,ioos:station:SCCF:56:1,2017-06-03T14:00:00Z,26.4645,-82.1044,1.84,36.0,1111122 
SCCF RECON,ioos:station:SCCF:56:1,2017-06-03T15:00:00Z,26.4645,-82.1044,1.83,36.13,1111122 
SCCF RECON,ioos:station:SCCF:56:1,2017-06-03T16:00:00Z,26.4645,-82.1044,1.75,36.12,1111122 
SCCF RECON,ioos:station:SCCF:56:1,2017-06-03T17:00:00Z,26.4645,-82.1044,1.63,36.13,1111122 
SCCF RECON,ioos:station:SCCF:56:1,2017-06-03T18:00:00Z,26.4645,-82.1044,1.52,36.24,1111122 
SCCF RECON,ioos:station:SCCF:56:1,2017-06-03T19:00:00Z,26.4645,-82.1044,1.43,36.39,1111122 
SCCF RECON,ioos:station:SCCF:56:1,2017-06-03T20:00:00Z,26.4645,-82.1044,1.35,36.49,1111122 
SCCF RECON,ioos:station:SCCF:56:1,2017-06-03T21:00:00Z,26.4645,-82.1044,1.318,36.57,1111122 
SCCF RECON,ioos:station:SCCF:56:1,2017-06-03T22:00:00Z,26.4645,-82.1044,1.38,36.57,1111122 
SCCF RECON,ioos:station:SCCF:56:1,2017-06-03T23:00:00Z,26.4645,-82.1044,1.51,36.19,1111122 
SCCF RECON,ioos:station:SCCF:56:1,2017-06-04T00:00:00Z,26.4645,-82.1044,1.55,36.08,1111122 
SCCF RECON,ioos:station:SCCF:56:1,2017-06-04T01:00:00Z,26.4645,-82.1044,1.59,36.11,1111122 
SCCF RECON,ioos:station:SCCF:56:1,2017-06-04T02:00:00Z,26.4645,-82.1044,1.63,36.12,1111122 
SCCF RECON,ioos:station:SCCF:56:1,2017-06-04T03:00:00Z,26.4645,-82.1044,1.66,36.1,1111122 
SCCF RECON,ioos:station:SCCF:56:1,2017-06-04T04:00:00Z,26.4645,-82.1044,1.64,36.11,1111122 
SCCF RECON,ioos:station:SCCF:56:1,2017-06-04T05:00:00Z,26.4645,-82.1044,1.6,36.13,1111122 
SCCF RECON,ioos:station:SCCF:56:1,2017-06-04T06:00:00Z,26.4645,-82.1044,1.53,36.18,1111122 
SCCF RECON,ioos:station:SCCF:56:1,2017-06-04T07:00:00Z,26.4645,-82.1044,1.48,36.29,1111122 
SCCF RECON,ioos:station:SCCF:56:1,2017-06-04T08:00:00Z,26.4645,-82.1044,1.42,36.39,1111122 
SCCF RECON,ioos:station:SCCF:56:1,2017-06-04T09:00:00Z,26.4645,-82.1044,1.39,36.48,1111122 
SCCF RECON,ioos:station:SCCF:56:1,2017-06-04T10:00:00Z,26.4645,-82.1044,1.47,36.33,1111122 
SCCF RECON,ioos:station:SCCF:56:1,2017-06-04T11:00:00Z,26.4645,-82.1044,1.6,36.1,1111122 
SCCF RECON,ioos:station:SCCF:56:1,2017-06-04T12:00:00Z,26.4645,-82.1044,1.713,36.09,1111122 
SCCF RECON,ioos:station:SCCF:56:1,2017-06-04T13:00:00Z,26.4645,-82.1044,1.79,36.02,1111122 
SCCF RECON,ioos:station:SCCF:56:1,2017-06-04T14:00:00Z,26.4645,-82.1044,1.85,36.0,1111122 
SCCF RECON,ioos:station:SCCF:56:1,2017-06-04T15:00:00Z,26.4645,-82.1044,1.85,36.01,1111122 
SCCF RECON,ioos:station:SCCF:56:1,2017-06-04T16:00:00Z,26.4645,-82.1044,1.81,36.1,1111122 
SCCF RECON,ioos:station:SCCF:56:1,2017-06-04T17:00:00Z,26.4645,-82.1044,1.71,36.06,1111122 
SCCF RECON,ioos:station:SCCF:56:1,2017-06-04T18:00:00Z,26.4645,-82.1044,1.59,36.18,1111122 
SCCF RECON,ioos:station:SCCF:56:1,2017-06-04T19:00:00Z,26.4645,-82.1044,1.48,36.32,1111122 
SCCF RECON,ioos:station:SCCF:56:1,2017-06-04T20:00:00Z,26.4645,-82.1044,1.38,36.46,1111122 
SCCF RECON,ioos:station:SCCF:56:1,2017-06-04T21:00:00Z,26.4645,-82.1044,1.271,36.58,1111122 
SCCF RECON,ioos:station:SCCF:56:1,2017-06-04T22:00:00Z,26.4645,-82.1044,1.25,36.69,1111122 
SCCF RECON,ioos:station:SCCF:56:1,2017-06-04T23:00:00Z,26.4645,-82.1044,1.34,36.64,1111122 
SCCF RECON,ioos:station:SCCF:56:1,2017-06-05T00:00:00Z,26.4645,-82.1044,1.48,36.28,1111122 
SCCF RECON,ioos:station:SCCF:56:1,2017-06-05T01:00:00Z,26.4645,-82.1044,1.58,36.27,1111122 
SCCF RECON,ioos:station:SCCF:56:1,2017-06-05T02:00:00Z,26.4645,-82.1044,1.66,36.21,1111122 
SCCF RECON,ioos:station:SCCF:56:1,2017-06-05T03:00:00Z,26.4645,-82.1044,1.71,36.08,1111122 
SCCF RECON,ioos:station:SCCF:56:1,2017-06-05T04:00:00Z,26.4645,-82.1044,1.73,36.03,1111122 
SCCF RECON,ioos:station:SCCF:56:1,2017-06-05T05:00:00Z,26.4645,-82.1044,1.71,36.11,1111122 
SCCF RECON,ioos:station:SCCF:56:1,2017-06-05T06:00:00Z,26.4645,-82.1044,1.68,36.09,1111122 
SCCF RECON,ioos:station:SCCF:56:1,2017-06-05T07:00:00Z,26.4645,-82.1044,1.609,36.11,1111122 
SCCF RECON,ioos:station:SCCF:56:1,2017-06-05T08:00:00Z,26.4645,-82.1044,1.528,36.16,1111122 
SCCF RECON,ioos:station:SCCF:56:1,2017-06-05T09:00:00Z,26.4645,-82.1044,1.482,36.32,1111122 
SCCF RECON,ioos:station:SCCF:56:1,2017-06-05T10:00:00Z,26.4645,-82.1044,1.496,36.34,1111122 
SCCF RECON,ioos:station:SCCF:56:1,2017-06-05T11:00:00Z,26.4645,-82.1044,1.617,36.24,1111122 
SCCF RECON,ioos:station:SCCF:56:1,2017-06-05T12:00:00Z,26.4645,-82.1044,1.73,36.17,1111122 
SCCF RECON,ioos:station:SCCF:56:1,2017-06-05T13:00:00Z,26.4645,-82.1044,1.834,36.17,1111122 
SCCF RECON,ioos:station:SCCF:56:1,2017-06-05T14:00:00Z,26.4645,-82.1044,1.89,36.15,1111122 
SCCF RECON,ioos:station:SCCF:56:1,2017-06-05T15:00:00Z,26.4645,-82.1044,1.911,36.14,1111122 
SCCF RECON,ioos:station:SCCF:56:1,2017-06-05T16:00:00Z,26.4645,-82.1044,1.91,36.15,1111122 
SCCF RECON,ioos:station:SCCF:56:1,2017-06-05T17:00:00Z,26.4645,-82.1044,1.87,36.2,1111122 
SCCF RECON,ioos:station:SCCF:56:1,2017-06-05T18:00:00Z,26.4645,-82.1044,1.709,36.0,1111122 
SCCF RECON,ioos:station:SCCF:56:1,2017-06-05T19:00:00Z,26.4645,-82.1044,1.581,36.08,1111122 
SCCF RECON,ioos:station:SCCF:56:1,2017-06-05T20:00:00Z,26.4645,-82.1044,1.48,36.08,1111122 
SCCF RECON,ioos:station:SCCF:56:1,2017-06-05T21:00:00Z,26.4645,-82.1044,1.33,36.03,1111122 
SCCF RECON,ioos:station:SCCF:56:1,2017-06-05T22:00:00Z,26.4645,-82.1044,1.22,36.06,1111122 
SCCF RECON,ioos:station:SCCF:56:1,2017-06-05T23:00:00Z,26.4645,-82.1044,1.17,36.11,1111122 
SCCF RECON,ioos:station:SCCF:56:1,2017-06-06T00:00:00Z,26.4645,-82.1044,1.29,36.08,1111122 
SCCF RECON,ioos:station:SCCF:56:1,2017-06-06T01:00:00Z,26.4645,-82.1044,1.47,35.83,1111122 
SCCF RECON,ioos:station:SCCF:56:1,2017-06-06T02:00:00Z,26.4645,-82.1044,1.57,35.77,1111122 
SCCF RECON,ioos:station:SCCF:56:1,2017-06-06T03:00:00Z,26.4645,-82.1044,1.64,35.83,1111122 
SCCF RECON,ioos:station:SCCF:56:1,2017-06-06T04:00:00Z,26.4645,-82.1044,1.681,35.83,1111122 
SCCF RECON,ioos:station:SCCF:56:1,2017-06-06T05:00:00Z,26.4645,-82.1044,1.71,35.87,1111122 
SCCF RECON,ioos:station:SCCF:56:1,2017-06-06T06:00:00Z,26.4645,-82.1044,1.7,35.81,1111122 
SCCF RECON,ioos:station:SCCF:56:1,2017-06-06T07:00:00Z,26.4645,-82.1044,1.63,35.81,1111122 
SCCF RECON,ioos:station:SCCF:56:1,2017-06-06T08:00:00Z,26.4645,-82.1044,1.61,35.61,1111122 
SCCF RECON,ioos:station:SCCF:56:1,2017-06-06T09:00:00Z,26.4645,-82.1044,1.51,35.43,1111122 
SCCF RECON,ioos:station:SCCF:56:1,2017-06-06T10:00:00Z,26.4645,-82.1044,1.49,35.27,1111122 
SCCF RECON,ioos:station:SCCF:56:1,2017-06-06T11:00:00Z,26.4645,-82.1044,1.591,35.38,1111122 
SCCF RECON,ioos:station:SCCF:56:1,2017-06-06T12:00:00Z,26.4645,-82.1044,1.7,35.56,1111122 
SCCF RECON,ioos:station:SCCF:56:1,2017-06-06T13:00:00Z,26.4645,-82.1044,1.83,35.68,1111122 
SCCF RECON,ioos:station:SCCF:56:1,2017-06-06T14:00:00Z,26.4645,-82.1044,1.93,35.81,1111122 
SCCF RECON,ioos:station:SCCF:56:1,2017-06-06T15:00:00Z,26.4645,-82.1044,1.982,35.8,1111122 
SCCF RECON,ioos:station:SCCF:56:1,2017-06-06T16:00:00Z,26.4645,-82.1044,1.97,35.79,1111122 
SCCF RECON,ioos:station:SCCF:56:1,2017-06-06T17:00:00Z,26.4645,-82.1044,1.921,35.63,1111122 
SCCF RECON,ioos:station:SCCF:56:1,2017-06-06T18:00:00Z,26.4645,-82.1044,1.84,35.67,1111122 
SCCF RECON,ioos:station:SCCF:56:1,2017-06-06T19:00:00Z,26.4645,-82.1044,1.765,35.61,1111122 
SCCF RECON,ioos:station:SCCF:56:1,2017-06-06T20:00:00Z,26.4645,-82.1044,1.61,35.49,1111122 
SCCF RECON,ioos:station:SCCF:56:1,2017-06-06T21:00:00Z,26.4645,-82.1044,1.499,35.42,1111122 
SCCF RECON,ioos:station:SCCF:56:1,2017-06-06T22:00:00Z,26.4645,-82.1044,1.48,35.36,1111122 
SCCF RECON,ioos:station:SCCF:56:1,2017-06-06T23:00:00Z,26.4645,-82.1044,1.373,34.86,1111122 
SCCF RECON,ioos:station:SCCF:56:1,2017-06-07T00:00:00Z,26.4645,-82.1044,1.33,34.26,1111122 
SCCF RECON,ioos:station:SCCF:56:1,2017-06-07T01:00:00Z,26.4645,-82.1044,1.427,34.2,1111122 
SCCF RECON,ioos:station:SCCF:56:1,2017-06-07T02:00:00Z,26.4645,-82.1044,1.54,34.78,1111122 
SCCF RECON,ioos:station:SCCF:56:1,2017-06-07T03:00:00Z,26.4645,-82.1044,1.64,35.11,1111122 
SCCF RECON,ioos:station:SCCF:56:1,2017-06-07T04:00:00Z,26.4645,-82.1044,1.69,35.27,1111122 
SCCF RECON,ioos:station:SCCF:56:1,2017-06-07T05:00:00Z,26.4645,-82.1044,1.82,35.4,1111122 
SCCF RECON,ioos:station:SCCF:56:1,2017-06-07T06:00:00Z,26.4645,-82.1044,1.803,35.4,1111122 
SCCF RECON,ioos:station:SCCF:56:1,2017-06-07T07:00:00Z,26.4645,-82.1044,1.8,35.38,1111122 
SCCF RECON,ioos:station:SCCF:56:1,2017-06-07T08:00:00Z,26.4645,-82.1044,1.75,35.08,1111122 
SCCF RECON,ioos:station:SCCF:56:1,2017-06-07T09:00:00Z,26.4645,-82.1044,1.69,35.18,1111122 
SCCF RECON,ioos:station:SCCF:56:1,2017-06-07T10:00:00Z,26.4645,-82.1044,1.55,34.74,1111122 
SCCF RECON,ioos:station:SCCF:56:1,2017-06-07T11:00:00Z,26.4645,-82.1044,1.56,34.79,1111122 
SCCF RECON,ioos:station:SCCF:56:1,2017-06-07T12:00:00Z,26.4645,-82.1044,1.671,35.21,1111122 
SCCF RECON,ioos:station:SCCF:56:1,2017-06-07T13:00:00Z,26.4645,-82.1044,1.789,35.37,1111122 
SCCF RECON,ioos:station:SCCF:56:1,2017-06-07T14:00:00Z,26.4645,-82.1044,1.895,35.54,1111122 
SCCF RECON,ioos:station:SCCF:56:1,2017-06-07T15:00:00Z,26.4645,-82.1044,2.02,35.53,1111122 
SCCF RECON,ioos:station:SCCF:56:1,2017-06-07T16:00:00Z,26.4645,-82.1044,2.061,35.49,1111122 
SCCF RECON,ioos:station:SCCF:56:1,2017-06-07T17:00:00Z,26.4645,-82.1044,2.051,35.32,1111122 
SCCF RECON,ioos:station:SCCF:56:1,2017-06-07T18:00:00Z,26.4645,-82.1044,2.08,34.41,1111122 
SCCF RECON,ioos:station:SCCF:56:1,2017-06-07T19:00:00Z,26.4645,-82.1044,1.878,32.93,1111122 
SCCF RECON,ioos:station:SCCF:56:1,2017-06-07T20:00:00Z,26.4645,-82.1044,1.75,32.06,1111122 
SCCF RECON,ioos:station:SCCF:56:1,2017-06-07T21:00:00Z,26.4645,-82.1044,1.615,30.92,1111122 
SCCF RECON,ioos:station:SCCF:56:1,2017-06-07T22:00:00Z,26.4645,-82.1044,1.444,29.83,1111122 
SCCF RECON,ioos:station:SCCF:56:1,2017-06-07T23:00:00Z,26.4645,-82.1044,1.321,29.37,1111122 
SCCF RECON,ioos:station:SCCF:56:1,2017-06-08T00:00:00Z,26.4645,-82.1044,1.245,29.0,1111122 
SCCF RECON,ioos:station:SCCF:56:1,2017-06-08T01:00:00Z,26.4645,-82.1044,1.336,28.95,1111122 
SCCF RECON,ioos:station:SCCF:56:1,2017-06-08T02:00:00Z,26.4645,-82.1044,1.49,33.65,1111122 
SCCF RECON,ioos:station:SCCF:56:1,2017-06-08T03:00:00Z,26.4645,-82.1044,1.634,34.6,1111122 
SCCF RECON,ioos:station:SCCF:56:1,2017-06-08T04:00:00Z,26.4645,-82.1044,1.743,34.74,1111122 
SCCF RECON,ioos:station:SCCF:56:1,2017-06-08T05:00:00Z,26.4645,-82.1044,1.824,34.66,1111122 
SCCF RECON,ioos:station:SCCF:56:1,2017-06-08T06:00:00Z,26.4645,-82.1044,1.838,34.25,1111122 
SCCF RECON,ioos:station:SCCF:56:1,2017-06-08T07:00:00Z,26.4645,-82.1044,1.777,33.88,1111122 
SCCF RECON,ioos:station:SCCF:56:1,2017-06-08T08:00:00Z,26.4645,-82.1044,1.746,33.86,1111122 
SCCF RECON,ioos:station:SCCF:56:1,2017-06-08T09:00:00Z,26.4645,-82.1044,1.68,33.46,1111122 
SCCF RECON,ioos:station:SCCF:56:1,2017-06-08T10:00:00Z,26.4645,-82.1044,1.596,33.63,1111122 
SCCF RECON,ioos:station:SCCF:56:1,2017-06-08T11:00:00Z,26.4645,-82.1044,1.578,32.89,1111122 
SCCF RECON,ioos:station:SCCF:56:1,2017-06-08T12:00:00Z,26.4645,-82.1044,1.642,33.17,1111122 
SCCF RECON,ioos:station:SCCF:56:1,2017-06-08T13:00:00Z,26.4645,-82.1044,1.759,34.03,1111122 
SCCF RECON,ioos:station:SCCF:56:1,2017-06-08T14:00:00Z,26.4645,-82.1044,1.883,34.21,1111122 
SCCF RECON,ioos:station:SCCF:56:1,2017-06-08T15:00:00Z,26.4645,-82.1044,1.951,34.23,1111122 
SCCF RECON,ioos:station:SCCF:56:1,2017-06-08T16:00:00Z,26.4645,-82.1044,2.03,34.24,1111122 
SCCF RECON,ioos:station:SCCF:56:1,2017-06-08T17:00:00Z,26.4645,-82.1044,1.981,34.01,1111122 
SCCF RECON,ioos:station:SCCF:56:1,2017-06-08T18:00:00Z,26.4645,-82.1044,1.901,34.13,1111122 
SCCF RECON,ioos:station:SCCF:56:1,2017-06-08T19:00:00Z,26.4645,-82.1044,1.77,33.68,1111122 
SCCF RECON,ioos:station:SCCF:56:1,2017-06-08T20:00:00Z,26.4645,-82.1044,1.637,33.3,1111122 
SCCF RECON,ioos:station:SCCF:56:1,2017-06-08T21:00:00Z,26.4645,-82.1044,1.498,32.64,1111122 
SCCF RECON,ioos:station:SCCF:56:1,2017-06-08T22:00:00Z,26.4645,-82.1044,1.351,31.94,1111122 
SCCF RECON,ioos:station:SCCF:56:1,2017-06-08T23:00:00Z,26.4645,-82.1044,1.237,31.55,1111122 
SCCF RECON,ioos:station:SCCF:56:1,2017-06-09T00:00:00Z,26.4645,-82.1044,1.144,31.11,1111122 
SCCF RECON,ioos:station:SCCF:56:1,2017-06-09T01:00:00Z,26.4645,-82.1044,1.13,30.47,1111122 
SCCF RECON,ioos:station:SCCF:56:1,2017-06-09T02:00:00Z,26.4645,-82.1044,1.247,30.99,1111122 
SCCF RECON,ioos:station:SCCF:56:1,2017-06-09T03:00:00Z,26.4645,-82.1044,1.42,33.86,1111122 
SCCF RECON,ioos:station:SCCF:56:1,2017-06-09T04:00:00Z,26.4645,-82.1044,1.534,34.01,1111122 
SCCF RECON,ioos:station:SCCF:56:1,2017-06-09T05:00:00Z,26.4645,-82.1044,1.63,34.03,1111122 
SCCF RECON,ioos:station:SCCF:56:1,2017-06-09T06:00:00Z,26.4645,-82.1044,1.69,34.07,1111122 
SCCF RECON,ioos:station:SCCF:56:1,2017-06-09T07:00:00Z,26.4645,-82.1044,1.71,34.08,1111122 
SCCF RECON,ioos:station:SCCF:56:1,2017-06-09T08:00:00Z,26.4645,-82.1044,1.687,34.07,1111122 
SCCF RECON,ioos:station:SCCF:56:1,2017-06-09T09:00:00Z,26.4645,-82.1044,1.61,33.78,1111122 
SCCF RECON,ioos:station:SCCF:56:1,2017-06-09T10:00:00Z,26.4645,-82.1044,1.56,33.65,1111122 
SCCF RECON,ioos:station:SCCF:56:1,2017-06-09T11:00:00Z,26.4645,-82.1044,1.54,33.35,1111122 
SCCF RECON,ioos:station:SCCF:56:1,2017-06-09T12:00:00Z,26.4645,-82.1044,1.529,33.18,1111122 
SCCF RECON,ioos:station:SCCF:56:1,2017-06-09T13:00:00Z,26.4645,-82.1044,1.56,33.38,1111122 
SCCF RECON,ioos:station:SCCF:56:1,2017-06-09T14:00:00Z,26.4645,-82.1044,1.669,33.71,1111122 
SCCF RECON,ioos:station:SCCF:56:1,2017-06-09T15:00:00Z,26.4645,-82.1044,1.801,33.85,1111122 
SCCF RECON,ioos:station:SCCF:56:1,2017-06-09T16:00:00Z,26.4645,-82.1044,1.898,33.7,1111122 
SCCF RECON,ioos:station:SCCF:56:1,2017-06-09T17:00:00Z,26.4645,-82.1044,1.94,33.54,1111122 
SCCF RECON,ioos:station:SCCF:56:1,2017-06-09T18:00:00Z,26.4645,-82.1044,1.9,33.56,1111122 
SCCF RECON,ioos:station:SCCF:56:1,2017-06-09T19:00:00Z,26.4645,-82.1044,1.801,33.49,1111122 
SCCF RECON,ioos:station:SCCF:56:1,2017-06-09T20:00:00Z,26.4645,-82.1044,1.65,33.44,1111122 
SCCF RECON,ioos:station:SCCF:56:1,2017-06-09T21:00:00Z,26.4645,-82.1044,1.495,33.17,1111122 
SCCF RECON,ioos:station:SCCF:56:1,2017-06-09T22:00:00Z,26.4645,-82.1044,1.37,32.82,1111122 
SCCF RECON,ioos:station:SCCF:56:1,2017-06-09T23:00:00Z,26.4645,-82.1044,1.26,32.5,1111122 
SCCF RECON,ioos:station:SCCF:56:1,2017-06-10T00:00:00Z,26.4645,-82.1044,1.169,32.15,1111122 
SCCF RECON,ioos:station:SCCF:56:1,2017-06-10T01:00:00Z,26.4645,-82.1044,1.11,31.64,1111122 
SCCF RECON,ioos:station:SCCF:56:1,2017-06-10T02:00:00Z,26.4645,-82.1044,1.18,31.58,1111122 
SCCF RECON,ioos:station:SCCF:56:1,2017-06-10T03:00:00Z,26.4645,-82.1044,1.398,33.15,1111122 
SCCF RECON,ioos:station:SCCF:56:1,2017-06-10T04:00:00Z,26.4645,-82.1044,1.449,33.42,1111122 
SCCF RECON,ioos:station:SCCF:56:1,2017-06-10T05:00:00Z,26.4645,-82.1044,1.585,33.52,1111122 
SCCF RECON,ioos:station:SCCF:56:1,2017-06-10T06:00:00Z,26.4645,-82.1044,1.687,33.65,1111122 
SCCF RECON,ioos:station:SCCF:56:1,2017-06-10T07:00:00Z,26.4645,-82.1044,1.75,33.58,1111122 
SCCF RECON,ioos:station:SCCF:56:1,2017-06-10T08:00:00Z,26.4645,-82.1044,1.779,33.49,1111122 
SCCF RECON,ioos:station:SCCF:56:1,2017-06-10T09:00:00Z,26.4645,-82.1044,1.729,33.43,1111122 
SCCF RECON,ioos:station:SCCF:56:1,2017-06-10T10:00:00Z,26.4645,-82.1044,1.652,33.39,1111122 
SCCF RECON,ioos:station:SCCF:56:1,2017-06-10T11:00:00Z,26.4645,-82.1044,1.63,33.33,1111122 
SCCF RECON,ioos:station:SCCF:56:1,2017-06-10T12:00:00Z,26.4645,-82.1044,1.6,33.28,1111122 
SCCF RECON,ioos:station:SCCF:56:1,2017-06-10T13:00:00Z,26.4645,-82.1044,1.62,33.22,1111122 
SCCF RECON,ioos:station:SCCF:56:1,2017-06-10T14:00:00Z,26.4645,-82.1044,1.742,32.61,1111122 
SCCF RECON,ioos:station:SCCF:56:1,2017-06-10T15:00:00Z,26.4645,-82.1044,1.87,31.79,1111122 
SCCF RECON,ioos:station:SCCF:56:1,2017-06-10T16:00:00Z,26.4645,-82.1044,1.921,32.0,1111122 
SCCF RECON,ioos:station:SCCF:56:1,2017-06-10T17:00:00Z,26.4645,-82.1044,1.94,32.11,1111122 
SCCF RECON,ioos:station:SCCF:56:1,2017-06-10T18:00:00Z,26.4645,-82.1044,1.931,32.2,1111122 
SCCF RECON,ioos:station:SCCF:56:1,2017-06-10T19:00:00Z,26.4645,-82.1044,1.905,32.15,1111122 
SCCF RECON,ioos:station:SCCF:56:1,2017-06-10T20:00:00Z,26.4645,-82.1044,1.796,31.92,1111122 
SCCF RECON,ioos:station:SCCF:56:1,2017-06-10T21:00:00Z,26.4645,-82.1044,1.636,30.81,1111122 
SCCF RECON,ioos:station:SCCF:56:1,2017-06-10T22:00:00Z,26.4645,-82.1044,1.5,30.44,1111122 
SCCF RECON,ioos:station:SCCF:56:1,2017-06-10T23:00:00Z,26.4645,-82.1044,1.389,29.57,1111122 
SCCF RECON,ioos:station:SCCF:56:1,2017-06-11T00:00:00Z,26.4645,-82.1044,1.281,28.8,1111122 
SCCF RECON,ioos:station:SCCF:56:1,2017-06-11T01:00:00Z,26.4645,-82.1044,1.161,28.22,1111122 
SCCF RECON,ioos:station:SCCF:56:1,2017-06-11T02:00:00Z,26.4645,-82.1044,1.113,27.86,1111122 
SCCF RECON,ioos:station:SCCF:56:1,2017-06-11T03:00:00Z,26.4645,-82.1044,1.2,27.84,1111122 
SCCF RECON,ioos:station:SCCF:56:1,2017-06-11T04:00:00Z,26.4645,-82.1044,1.38,30.98,1111122 
SCCF RECON,ioos:station:SCCF:56:1,2017-06-11T05:00:00Z,26.4645,-82.1044,1.51,31.48,1111122 
SCCF RECON,ioos:station:SCCF:56:1,2017-06-11T06:00:00Z,26.4645,-82.1044,1.61,31.42,1111122 
SCCF RECON,ioos:station:SCCF:56:1,2017-06-11T07:00:00Z,26.4645,-82.1044,1.68,31.8,1111122 
SCCF RECON,ioos:station:SCCF:56:1,2017-06-11T08:00:00Z,26.4645,-82.1044,1.71,31.55,1111122 
SCCF RECON,ioos:station:SCCF:56:1,2017-06-11T09:00:00Z,26.4645,-82.1044,1.701,31.64,1111122 
SCCF RECON,ioos:station:SCCF:56:1,2017-06-11T10:00:00Z,26.4645,-82.1044,1.661,31.73,1111122 
SCCF RECON,ioos:station:SCCF:56:1,2017-06-11T11:00:00Z,26.4645,-82.1044,1.628,31.6,1111122 
SCCF RECON,ioos:station:SCCF:56:1,2017-06-11T12:00:00Z,26.4645,-82.1044,1.577,30.96,1111122 
SCCF RECON,ioos:station:SCCF:56:1,2017-06-11T13:00:00Z,26.4645,-82.1044,1.568,30.96,1111122 
SCCF RECON,ioos:station:SCCF:56:1,2017-06-11T14:00:00Z,26.4645,-82.1044,1.6,31.08,1111122 
SCCF RECON,ioos:station:SCCF:56:1,2017-06-11T15:00:00Z,26.4645,-82.1044,1.715,29.69,1111122 
SCCF RECON,ioos:station:SCCF:56:1,2017-06-11T16:00:00Z,26.4645,-82.1044,1.849,29.81,1111122 
SCCF RECON,ioos:station:SCCF:56:1,2017-06-11T17:00:00Z,26.4645,-82.1044,1.92,30.25,1111122 
SCCF RECON,ioos:station:SCCF:56:1,2017-06-11T18:00:00Z,26.4645,-82.1044,1.95,30.43,1111122 